ARABSAT-7B (BADR-8)

Last updated on Fri Dec 19 2025 00:02:54 GMT+0000 (Coordinated Universal Time)

1 56757U 23075A 25351.98843539 .00000170 00000+0 00000+0 0 9998 2 56757 0.0758 28.9188 0003534 301.5822 138.2103 1.00272189 9304
UTC large
Height (km)
Speed (km/s)
/
Latitude / Longitude
Inclination (degrees)
Orbital Period (minutes)
Azimuth
Elevation
Range (km)
Doppler Factor

Next 0 passes for location: London (51.5072 / 0.1276)

Sorry there are no passes over London.